Weather History for KNID - October, 2010

Change the Weather History Date:

Wednesday, October 27, 2010

  Actual Average Record
Temperature  
Mean Temperature 54 °F -  
Max Temperature 66 °F 70 °F 90 °F (2008)
Min Temperature 43 °F 45 °F 34 °F (1997)
Degree Days  
Heating Degree Days 10    
Growing Degree Days 4 (Base 50)    
Moisture  
Dew Point 16 °F    
Average Humidity 24    
Maximum Humidity 49    
Minimum Humidity 10    
Precipitation  
Precipitation 0.00 in - - ()
Sea Level Pressure  
Sea Level Pressure 30.19 in    
Wind  
Wind Speed 7 mph (SW)    
Max Wind Speed 14 mph    
Max Gust Speed -    
Visibility 10 miles    
Events      
Averages and records for this station are not official NWS values.
T = Trace of Precipitation, MM = Missing Value Source: NWS Daily Summary

Daily Weather History Graph

Daily Weather History Graph

Search for Another Location

Airport or City:

Trip Planner

Search our weather history database for the weather conditions in past years. The results will help you decide how hot, cold, wet, or windy it might be!

Date:

Astronomy

Oct. 27, 2010 Rise Set
Actual Time 7:08 AM PDT 6:00 PM PDT
Civil Twilight 6:41 AM PDT 6:26 PM PDT
Nautical Twilight 6:11 AM PDT 6:56 PM PDT
Astronomical Twilight 5:42 AM PDT 7:26 PM PDT
Moon 9:36 PM PDT (10/27) 11:38 AM PDT (10/27)
Length of Visible Light 11h 44m
Length of Day
10h 52m
Waning Gibbous, 78% of the Moon is Illuminated
Oct 27
Waning Gibbous
Oct 30
Last Quarter
Nov 5
New
Nov 13
First Quarter
Nov 21
Full

Hourly Weather History & Observations

Time (PDT) Temp. Windchill Dew Point Humidity Pressure Visibility Wind Dir Wind Speed Gust Speed Precip Events Conditions
12:56 AM 55.9 °F - 17.1 °F 22% 30.03 in - NNW 13.8 mph - N/A   Clear
1:56 AM 54.0 °F - 17.1 °F 23% 30.05 in - WNW 10.4 mph - N/A   Partly Cloudy
2:56 AM 54.0 °F - 18.0 °F 24% 30.09 in - NW 10.4 mph - N/A   Clear
3:56 AM 51.1 °F - 18.0 °F 27% 30.11 in - WSW 4.6 mph - N/A   Clear
4:56 AM 50.0 °F - 19.0 °F 29% 30.12 in 10.0 mi NNW 8.1 mph - N/A   Clear
5:56 AM 43.0 °F - 25.0 °F 49% 30.17 in 10.0 mi Calm Calm - N/A   Scattered Clouds
6:56 AM 48.0 °F - 19.9 °F 33% 30.18 in 10.0 mi West 4.6 mph - N/A   Scattered Clouds
7:56 AM 48.0 °F - 21.0 °F 34% 30.20 in 10.0 mi SW 5.8 mph - N/A   Scattered Clouds
8:56 AM 52.0 °F - 19.0 °F 27% 30.23 in 10.0 mi Calm Calm - N/A   Mostly Cloudy
9:56 AM 55.9 °F - 17.1 °F 22% 30.25 in 10.0 mi ESE 5.8 mph - N/A   Mostly Cloudy
10:56 AM 59.0 °F - 16.0 °F 19% 30.25 in 10.0 mi Variable 3.5 mph - N/A   Mostly Cloudy
11:56 AM 62.1 °F - 12.0 °F 14% 30.24 in 10.0 mi Variable 3.5 mph - N/A   Mostly Cloudy
12:56 PM 64.0 °F - 10.0 °F 12% 30.22 in 10.0 mi Variable 4.6 mph - N/A   Mostly Cloudy
1:56 PM 64.9 °F - 6.1 °F 10% 30.19 in 10.0 mi East 9.2 mph - N/A   Mostly Cloudy
2:56 PM 64.9 °F - 6.1 °F 10% 30.18 in 10.0 mi ESE 8.1 mph - N/A   Mostly Cloudy
3:56 PM 66.0 °F - 8.1 °F 10% 30.18 in 10.0 mi Variable 4.6 mph - N/A   Mostly Cloudy
4:56 PM 64.0 °F - 8.1 °F 11% 30.19 in 10.0 mi East 5.8 mph - N/A   Mostly Cloudy
5:56 PM 61.0 °F - 10.9 °F 14% 30.21 in 10.0 mi ESE 3.5 mph - N/A   Mostly Cloudy
6:56 PM 57.0 °F - 12.9 °F 18% 30.22 in 10.0 mi East 4.6 mph - N/A   Mostly Cloudy
7:56 PM 52.0 °F - 17.1 °F 25% 30.23 in 10.0 mi Calm Calm - N/A   Mostly Cloudy
8:56 PM 48.9 °F - 19.9 °F 32% 30.23 in 10.0 mi WSW 4.6 mph - N/A   Mostly Cloudy
9:56 PM 48.0 °F - 18.0 °F 30% 30.23 in 10.0 mi West 6.9 mph - N/A   Scattered Clouds
10:56 PM 45.0 °F 43.5 °F 19.9 °F 37% 30.25 in 10.0 mi South 3.5 mph - N/A   Scattered Clouds
11:56 PM 44.1 °F 39.5 °F 19.9 °F 38% 30.23 in - SSW 8.1 mph - N/A   Partly Cloudy